COSMOS 2557 (706K)

Last updated on Sat Jun 21 2025 00:02:32 GMT+0000 (Coordinated Universal Time)

1 52984U 22075A 25170.83971871 -.00000047 00000+0 00000+0 0 9993 2 52984 64.5059 327.2278 0010572 277.1120 82.7688 2.13102052 22981
UTC large
Height (km)
Speed (km/s)
/
Latitude / Longitude
Inclination (degrees)
Orbital Period (minutes)
Azimuth
Elevation
Range (km)
Doppler Factor

Next 0 passes for location: London (51.5072 / 0.1276)

Sorry there are no passes over London.